Regional Weather Roundup
Issued by NWS

Home | Current Version | Previous Version | Text Only | Print | Product List | Glossary Off
Versions: 1 2 3 4 5 6 7 8 9 10 11 12 13 14 15 16 17 18 19 20 21 22 23 24 25 26 27 28 29 30 31 32 33 34 35 36 37 38 39 40 41 42 43 44 45 46 47 48 49 50

000
ASUS43 KIND 150909
RWRIN

WEATHER ROUNDUP FOR INDIANA
NATIONAL WEATHER SERVICE INDIANAPOLIS IN
500 AM EDT TUE APR 15 2014

NOTE: "FAIR" INDICATES FEW OR NO CLOUDS BELOW 12,000 FEET WITH NO
SIGNIFICANT WEATHER AND/OR OBSTRUCTIONS TO VISIBILITY.

* - STATION DOES NOT REPORT WEATHER SUCH AS PRECIPITATION OR FOG.

+ - STATION NOT QUALITY CONTROLLED BY THE NATIONAL WEATHER SERVICE.
    USE DATA WITH CAUTION...ESPECIALLY DEWPOINT AND RELATIVE
    HUMIDITY OBSERVATIONS.

INZ001>003-010>013-019-020-151000-
NORTHWEST INDIANA

CITY           SKY/WX    TMP DP  RH WIND       PRES   REMARKS
GARY /AIRPORT/ CLOUDY    31  26  82 N17       29.99S WCI  20
LA PORTE +     CLOUDY    28  20  73 N14       29.96R WCI  17
MICHIGAN CITY+ LGT SNOW  30  23  74 N9G18     29.98R WCI  22
MONTICELLO +   LGT SNOW  30  28  92 N8        29.95R WCI  22
RENSSELAER +   CLOUDY    32  30  93 CALM      29.98R
VALPARAISO     LGT SNOW  27  23  85 N9        29.97R FOG     WCI  18

$$

LMZ046-743>745-151000-
SOUTHERN LAKE MICHIGAN

STATION/POSITION TIME  TEMP WIND        PRES
                       AIR  DIR/SP/G
                 (UTC) (F)  (DEG/KT/KT) (MB)
MICHIGAN CITY    0900   29  350/ 21/ 23   N/A

$$

INZ004-005-014>016-021>024-151000-
NORTH CENTRAL INDIANA

CITY           SKY/WX    TMP DP  RH WIND       PRES   REMARKS
GOSHEN         PTCLDY    27  20  75 N12       29.93R WCI  17
LOGANSPORT +   CLOUDY    30  23  74 N12       29.95S WCI  21
PERU/GRISSOM   CLOUDY    30  27  88 N14       29.93S WCI  19
ROCHESTER +    CLOUDY    32  23  69 N13       29.95R WCI  22
SOUTH BEND     MOCLDY    28  18  66 N13       29.95R WCI  17
WARSAW +       CLOUDY    28  21  74 N14       29.93R WCI  17

$$

INZ006>009-017-018-025>027-151000-
NORTHEAST INDIANA

CITY           SKY/WX    TMP DP  RH WIND       PRES   REMARKS
ANGOLA *+      CLOUDY    27  25  93 NW13      29.88R WCI  16
AUBURN +       CLOUDY    30  23  74 NW14G20   29.89S WCI  20
FORT WAYNE     CLOUDY    29  23  78 NW16G25   29.90R WCI  17

$$

INZ028-029-035-036-043>045-051>053-151000-
WEST CENTRAL INDIANA

CITY           SKY/WX    TMP DP  RH WIND       PRES   REMARKS
GREENCASTLE +  CLOUDY    32  28  86 NW9       29.95S WCI  24
LAFAYETTE      CLOUDY    30  27  88 NW13      29.97R WCI  20
TERRE HAUTE    CLOUDY    33  27  78 NW14      29.99R WCI  23

$$

INZ030>032-037>040-046>048-054>057-064-065-151000-
CENTRAL INDIANA

CITY           SKY/WX    TMP DP  RH WIND       PRES   REMARKS
CP ATTERBURY + CLOUDY    34  30  86 NW10G16   29.92F WCI  26
FRANKFORT +    FLURRIES  32  27  80 NW9       29.95R WCI  24
GREENWOOD *+   CLOUDY    32  28  86 N9        29.92  WCI  24
INDIANAPOLIS   CLOUDY    31  28  89 N13       29.92S WCI  21
-EAGLE CREEK   CLOUDY    32  27  81 N10       29.92S WCI  24
KOKOMO *+      CLOUDY    30  23  74 N16       29.93S WCI  19
MARION +       MOCLDY    29  23  75 N14G22    29.93R WCI  19
MT COMFORT *+  CLOUDY    32  27  80 NW13      29.92S WCI  22
SHELBYVILLE    CLOUDY    34  24  67 N15       29.90F WCI  24
ZIONSVILLE +   CLOUDY    32  25  75 N13G20    29.93S WCI  22

$$

INZ033-034-041-042-049-050-058-059-151000-
EAST CENTRAL INDIANA

CITY           SKY/WX    TMP DP  RH WIND       PRES   REMARKS
MUNCIE         CLOUDY    30  25  81 N17       29.91R WCI  18

$$

INZ060-061-067>069-081>083-085>088-151000-
SOUTHWEST INDIANA

CITY           SKY/WX    TMP DP  RH WIND       PRES   REMARKS
EVANSVILLE     CLOUDY    37  29  72 NW17      30.00S
HUNTINGBURG *+ CLOUDY    36  28  75 N17G23    29.97S
WASHINGTON +   CLOUDY    34  30  85 NW15      29.97S WCI  24

$$

INZ062-063-066-070>080-084-089>092-151000-
SOUTH CENTRAL AND SOUTHEAST INDIANA

CITY           SKY/WX    TMP DP  RH WIND       PRES   REMARKS
BLOOMINGTON    CLOUDY    33  30  88 NW10      29.92F WCI  25
NORTH VERNON + CLOUDY    34  34 100 NW9       29.92S WCI  26
SEYMOUR +      CLOUDY    32  21  64 NW12      29.93  WCI  23

$$




USA.gov is the U.S. government's official web portal to all federal, state and local government web resources and services.